| time (UTC) | temp F | wind direction | speed MPH | gust MPH | rain 1hr in | rain 24hr in | rain mn in | humidity % | barometer mb |
| 20260506073023 | 46 | 26 | 6.0 | 12.0 | 0.12 | 0.69 | 0.33 | 94 | 1008.4 |
| 20260506072518 | 46 | 30 | 6.0 | 13.0 | 0.12 | 0.68 | 0.32 | 94 | 1008.3 |
| 20260506072018 | 47 | 16 | 6.0 | 11.0 | 0.13 | 0.68 | 0.32 | 94 | 1008.3 |
| 20260506071525 | 47 | 23 | 7.0 | 11.0 | 0.13 | 0.67 | 0.31 | 94 | 1008.2 |
| 20260506071107 | 47 | 25 | 7.0 | 10.0 | 0.12 | 0.66 | 0.30 | 94 | 1008.2 |
| 20260506070531 | 47 | 30 | 5.0 | 10.0 | 0.13 | 0.66 | 0.30 | 94 | 1008.3 |
| 20260506062027 | 48 | 30 | 4.0 | 8.0 | 0.06 | 0.55 | 0.19 | 94 | 1008.2 |
| 20260506061521 | 48 | 13 | 4.0 | 6.0 | 0.05 | 0.54 | 0.18 | 94 | 1008.2 |
| 20260506061031 | 48 | 42 | 4.0 | 6.0 | 0.05 | 0.53 | 0.17 | 94 | 1008.3 |
| 20260506060529 | 48 | 22 | 0.0 | 4.0 | 0.06 | 0.53 | 0.17 | 94 | 1008.4 |
| 20260506051048 | 48 | 88 | 3.0 | 5.0 | 0.10 | 0.48 | 0.12 | 94 | 1009.1 |
| 20260506050537 | 48 | 123 | 3.0 | 7.0 | 0.09 | 0.47 | 0.11 | 94 | 1009.4 |
| 20260506045018 | 48 | 122 | 1.0 | 3.0 | 0.10 | 0.44 | 0.08 | 94 | 1009.3 |
| 20260506044531 | 48 | 122 | 1.0 | 7.0 | 0.12 | 0.44 | 0.08 | 93 | 1009.2 |
| 20260506044026 | 48 | 124 | 3.0 | 7.0 | 0.13 | 0.43 | 0.07 | 93 | 1009.4 |
| 20260506043552 | 48 | 131 | 2.0 | 7.0 | 0.13 | 0.42 | 0.06 | 93 | 1009.3 |
| 20260506043037 | 48 | 134 | 3.0 | 7.0 | 0.12 | 0.40 | 0.04 | 93 | 1009.2 |
| 20260506042540 | 48 | 132 | 2.0 | 5.0 | 0.12 | 0.40 | 0.04 | 93 | 1009.3 |
| 20260506042042 | 48 | 88 | 2.0 | 6.0 | 0.11 | 0.39 | 0.03 | 93 | 1009.1 |
| 20260506041611 | 48 | 130 | 3.0 | 6.0 | 0.10 | 0.38 | 0.02 | 93 | 1009.1 |
| 20260506041040 | 48 | 60 | 2.0 | 3.0 | 0.10 | 0.38 | 0.02 | 93 | 1009.0 |
| 20260506040536 | 48 | 68 | 0.0 | 0.0 | 0.09 | 0.37 | 0.01 | 93 | 1009.1 |
| 20260506040028 | 48 | 68 | 0.0 | 1.0 | 0.08 | 0.36 | 0.00 | 93 | 1009.3 |
| 20260506035521 | 48 | 69 | 0.0 | 2.0 | 0.08 | 0.36 | 0.36 | 93 | 1009.4 |
| 20260506035032 | 48 | 16 | 0.0 | 2.0 | 0.06 | 0.33 | 0.33 | 93 | 1009.5 |
| 20260506034549 | 48 | 13 | 0.0 | 2.0 | 0.06 | 0.32 | 0.32 | 93 | 1009.5 |
| 20260506034035 | 48 | 13 | 0.0 | 4.0 | 0.04 | 0.30 | 0.30 | 93 | 1009.9 |
| 20260506033541 | 48 | 355 | 2.0 | 3.0 | 0.03 | 0.29 | 0.29 | 93 | 1009.3 |
| 20260506033034 | 48 | 20 | 1.0 | 4.0 | 0.03 | 0.28 | 0.28 | 93 | 1009.6 |
| 20260506032526 | 48 | 16 | 1.0 | 4.0 | 0.04 | 0.28 | 0.28 | 93 | 1009.6 |
| 20260506032033 | 48 | 80 | 0.0 | 2.0 | 0.05 | 0.28 | 0.28 | 93 | 1009.6 |
| 20260506031534 | 48 | 80 | 0.0 | 2.0 | 0.06 | 0.28 | 0.28 | 93 | 1009.4 |
| 20260506031024 | 48 | 80 | 0.0 | 2.0 | 0.07 | 0.28 | 0.28 | 92 | 1009.5 |
| 20260506030532 | 48 | 80 | 0.0 | 4.0 | 0.07 | 0.28 | 0.28 | 92 | 1009.4 |
| 20260506030047 | 48 | 80 | 2.0 | 4.0 | 0.08 | 0.28 | 0.28 | 92 | 1009.4 |
| 20260506025536 | 48 | 78 | 0.0 | 3.0 | 0.08 | 0.28 | 0.28 | 92 | 1009.4 |
| 20260506025031 | 48 | 118 | 2.0 | 4.0 | 0.07 | 0.27 | 0.27 | 92 | 1009.6 |
| 20260506024559 | 48 | 118 | 1.0 | 4.0 | 0.07 | 0.26 | 0.26 | 92 | 1009.8 |
| 20260506024020 | 48 | 125 | 1.0 | 4.0 | 0.07 | 0.26 | 0.26 | 92 | 1009.8 |
| 20260506023521 | 48 | 123 | 2.0 | 4.0 | 0.06 | 0.25 | 0.25 | 92 | 1010.0 |
| 20260506023030 | 48 | 81 | 0.0 | 3.0 | 0.06 | 0.25 | 0.25 | 92 | 1010.1 |
| 20260506022520 | 48 | 81 | 0.0 | 3.0 | 0.06 | 0.24 | 0.24 | 92 | 1010.2 |
| 20260506022037 | 48 | 111 | 1.0 | 2.0 | 0.05 | 0.23 | 0.23 | 92 | 1010.1 |
| 20260506021522 | 48 | 111 | 0.0 | 0.0 | 0.05 | 0.22 | 0.22 | 92 | 1010.2 |
| 20260506021032 | 48 | 111 | 0.0 | 0.0 | 0.04 | 0.21 | 0.21 | 92 | 1010.3 |
| 20260506020528 | 48 | 111 | 0.0 | 0.0 | 0.04 | 0.21 | 0.21 | 92 | 1010.1 |
| 20260506020027 | 47 | 111 | 0.0 | 0.0 | 0.03 | 0.20 | 0.20 | 92 | 1010.1 |
| 20260506015556 | 47 | 111 | 0.0 | 0.0 | 0.04 | 0.20 | 0.20 | 91 | 1010.0 |
| 20260506015049 | 47 | 111 | 0.0 | 0.0 | 0.04 | 0.20 | 0.20 | 91 | 1010.0 |
| 20260506014553 | 47 | 111 | 0.0 | 0.0 | 0.03 | 0.19 | 0.19 | 91 | 1010.0 |
| 20260506014051 | 47 | 111 | 0.0 | 0.0 | 0.05 | 0.19 | 0.19 | 91 | 1009.9 |
| 20260506013537 | 47 | 111 | 0.0 | 0.0 | 0.06 | 0.19 | 0.19 | 91 | 1009.9 |
| 20260506013133 | 47 | 111 | 0.0 | 0.0 | 0.07 | 0.19 | 0.19 | 91 | 1010.0 |
| 20260506012544 | 47 | 111 | 0.0 | 0.0 | 0.06 | 0.18 | 0.18 | 91 | 1009.9 |
| 20260506012040 | 47 | 111 | 0.0 | 2.0 | 0.06 | 0.18 | 0.18 | 91 | 1009.8 |
| 20260506011530 | 47 | 111 | 1.0 | 2.0 | 0.06 | 0.17 | 0.17 | 91 | 1009.5 |
| 20260506011042 | 47 | 111 | 0.0 | 4.0 | 0.07 | 0.17 | 0.17 | 91 | 1009.4 |
| 20260506010042 | 47 | 84 | 1.0 | 3.0 | 0.08 | 0.17 | 0.17 | 91 | 1009.4 |
| 20260506005558 | 47 | 13 | 0.0 | 3.0 | 0.07 | 0.16 | 0.16 | 91 | 1009.0 |
| 20260506005043 | 47 | 12 | 0.0 | 3.0 | 0.07 | 0.16 | 0.16 | 91 | 1009.1 |
| 20260506004541 | 47 | 355 | 0.0 | 3.0 | 0.06 | 0.15 | 0.15 | 90 | 1009.0 |
| 20260506004023 | 47 | 341 | 0.0 | 3.0 | 0.05 | 0.14 | 0.14 | 90 | 1008.9 |
| 20260506003613 | 47 | 340 | 0.0 | 3.0 | 0.05 | 0.13 | 0.13 | 90 | 1008.8 |
| 20260506003055 | 47 | 340 | 0.0 | 3.0 | 0.04 | 0.12 | 0.12 | 90 | 1008.9 |
| 20260506002731 | 47 | 340 | 0.0 | 4.0 | 0.05 | 0.12 | 0.12 | 90 | 1008.9 |
| 20260506002105 | 47 | 340 | 3.0 | 5.0 | 0.07 | 0.12 | 0.12 | 90 | 1008.7 |
| 20260506001817 | 47 | 333 | 3.0 | 5.0 | 0.07 | 0.11 | 0.11 | 90 | 1008.8 |
| 20260506001125 | 48 | 336 | 3.0 | 5.0 | 0.09 | 0.10 | 0.10 | 89 | 1008.8 |
| 20260506000535 | 48 | 327 | 2.0 | 4.0 | 0.10 | 0.10 | 0.10 | 89 | 1009.0 |
| 20260506000101 | 48 | 348 | 2.0 | 4.0 | 0.09 | 0.09 | 0.09 | 89 | 1008.9 |
| 20260505235705 | 48 | 326 | 1.0 | 4.0 | 0.09 | 0.09 | 0.09 | 89 | 1008.9 |
| 20260505235121 | 48 | 319 | 1.0 | 4.0 | 0.09 | 0.09 | 0.09 | 88 | 1008.8 |
| 20260505234605 | 48 | 341 | 1.0 | 8.0 | 0.09 | 0.09 | 0.09 | 88 | 1008.6 |
| 20260505234024 | 48 | 344 | 4.0 | 8.0 | 0.09 | 0.09 | 0.09 | 87 | 1008.8 |
| 20260505233533 | 49 | 344 | 3.0 | 6.0 | 0.08 | 0.08 | 0.08 | 87 | 1008.9 |
| 20260505233026 | 49 | 317 | 2.0 | 7.0 | 0.07 | 0.07 | 0.07 | 86 | 1009.1 |
| 20260505232630 | 49 | 328 | 2.0 | 10.0 | 0.07 | 0.07 | 0.07 | 85 | 1009.0 |
| 20260505232118 | 49 | 325 | 4.0 | 11.0 | 0.05 | 0.05 | 0.05 | 84 | 1008.8 |
| 20260505231600 | 50 | 337 | 6.0 | 13.0 | 0.03 | 0.03 | 0.03 | 81 | 1008.6 |
| 20260505231048 | 51 | 283 | 8.0 | 13.0 | 0.00 | 0.00 | 0.00 | 79 | 1008.5 |
| 20260505230524 | 52 | 319 | 6.0 | 17.0 | 0.00 | 0.00 | 0.00 | 77 | 1008.5 |
| 20260505230044 | 52 | 326 | 10.0 | 17.0 | 0.00 | 0.00 | 0.00 | 74 | 1008.3 |
| 20260505225533 | 53 | 292 | 7.0 | 13.0 | 0.00 | 0.00 | 0.00 | 73 | 1008.3 |
| 20260505225044 | 53 | 303 | 5.0 | 12.0 | 0.00 | 0.00 | 0.00 | 73 | 1008.1 |
| 20260505224112 | 54 | 322 | 6.0 | 17.0 | 0.00 | 0.00 | 0.00 | 71 | 1008.2 |
| 20260505223621 | 55 | 291 | 9.0 | 20.0 | 0.00 | 0.00 | 0.00 | 70 | 1007.9 |
| 20260505223024 | 56 | 296 | 8.0 | 20.0 | 0.00 | 0.00 | 0.00 | 68 | 1007.7 |
| 20260505222600 | 57 | 323 | 6.0 | 19.0 | 0.00 | 0.00 | 0.00 | 66 | 1007.8 |
| 20260505221623 | 59 | 321 | 9.0 | 20.0 | 0.00 | 0.00 | 0.00 | 64 | 1007.4 |
| 20260505221254 | 60 | 292 | 7.0 | 14.0 | 0.00 | 0.00 | 0.00 | 63 | 1007.1 |
| 20260505220551 | 62 | 314 | 7.0 | 12.0 | 0.00 | 0.00 | 0.00 | 62 | 1006.9 |
| 20260505220059 | 64 | 288 | 5.0 | 16.0 | 0.00 | 0.00 | 0.00 | 69 | 1006.7 |
| 20260505215542 | 65 | 252 | 6.0 | 24.0 | 0.00 | 0.00 | 0.00 | 68 | 1006.4 |
| 20260505215030 | 65 | 244 | 6.0 | 15.0 | 0.00 | 0.00 | 0.00 | 67 | 1006.2 |
| 20260505214607 | 66 | 274 | 7.0 | 18.0 | 0.00 | 0.00 | 0.00 | 66 | 1006.0 |
| 20260505213557 | 67 | 267 | 10.0 | 23.0 | 0.00 | 0.00 | 0.00 | 63 | 1005.5 |
| 20260505213106 | 67 | 238 | 7.0 | 18.0 | 0.00 | 0.00 | 0.00 | 64 | 1005.3 |
| 20260505212524 | 68 | 252 | 7.0 | 17.0 | 0.00 | 0.00 | 0.00 | 62 | 1005.2 |
| 20260505212158 | 68 | 237 | 5.0 | 15.0 | 0.00 | 0.00 | 0.00 | 63 | 1005.3 |
| 20260505211037 | 68 | 268 | 9.0 | 22.0 | 0.00 | 0.00 | 0.00 | 64 | 1005.0 |
| 20260505210633 | 68 | 309 | 9.0 | 22.0 | 0.00 | 0.00 | 0.00 | 63 | 1005.0 |
| 20260505210036 | 68 | 307 | 9.0 | 18.0 | 0.00 | 0.00 | 0.00 | 63 | 1005.2 |
| 20260505205537 | 69 | 269 | 7.0 | 14.0 | 0.00 | 0.00 | 0.00 | 64 | 1005.1 |
| 20260505205027 | 69 | 251 | 5.0 | 11.0 | 0.00 | 0.00 | 0.00 | 64 | 1005.0 |
| 20260505204533 | 68 | 269 | 5.0 | 9.0 | 0.00 | 0.00 | 0.00 | 65 | 1004.9 |
| 20260505204058 | 68 | 250 | 3.0 | 11.0 | 0.00 | 0.00 | 0.00 | 65 | 1004.9 |
| 20260505203527 | 68 | 259 | 6.0 | 11.0 | 0.00 | 0.00 | 0.00 | 64 | 1004.9 |
| 20260505203023 | 68 | 224 | 2.0 | 13.0 | 0.00 | 0.00 | 0.00 | 66 | 1004.7 |
| 20260505202546 | 68 | 243 | 5.0 | 13.0 | 0.00 | 0.00 | 0.00 | 65 | 1004.8 |
| 20260505202036 | 68 | 231 | 3.0 | 7.0 | 0.00 | 0.00 | 0.00 | 65 | 1004.9 |
| 20260505201652 | 68 | 200 | 3.0 | 7.0 | 0.00 | 0.00 | 0.00 | 65 | 1004.8 |
| 20260505201056 | 68 | 257 | 2.0 | 11.0 | 0.00 | 0.00 | 0.00 | 66 | 1004.9 |
| 20260505200535 | 68 | 228 | 5.0 | 11.0 | 0.00 | 0.00 | 0.00 | 64 | 1004.9 |
| 20260505200050 | 68 | 227 | 2.0 | 11.0 | 0.00 | 0.00 | 0.00 | 65 | 1004.9 |
| 20260505195532 | 68 | 268 | 5.0 | 14.0 | 0.00 | 0.00 | 0.00 | 64 | 1004.9 |
| 20260505195033 | 68 | 254 | 7.0 | 14.0 | 0.00 | 0.00 | 0.00 | 63 | 1004.8 |
| 20260505193541 | 69 | 244 | 4.0 | 14.0 | 0.00 | 0.00 | 0.00 | 62 | 1004.6 |
| 20260505193042 | 70 | 267 | 8.0 | 17.0 | 0.00 | 0.00 | 0.00 | 60 | 1004.6 |
| 20260505192546 | 71 | 255 | 7.0 | 17.0 | 0.00 | 0.00 | 0.00 | 59 | 1004.5 |
| 20260505192026 | 72 | 273 | 7.0 | 14.0 | 0.00 | 0.00 | 0.00 | 57 | 1004.4 |
| 20260505191539 | 72 | 211 | 5.0 | 13.0 | 0.00 | 0.00 | 0.00 | 56 | 1004.2 |
| 20260505191040 | 73 | 249 | 8.0 | 13.0 | 0.00 | 0.00 | 0.00 | 55 | 1004.4 |
| 20260505190524 | 73 | 261 | 7.0 | 14.0 | 0.00 | 0.00 | 0.00 | 56 | 1004.3 |
| 20260505190050 | 73 | 248 | 5.0 | 14.0 | 0.00 | 0.00 | 0.00 | 55 | 1004.2 |
| 20260505185525 | 73 | 217 | 4.0 | 12.0 | 0.00 | 0.00 | 0.00 | 57 | 1004.1 |
| 20260505185041 | 73 | 267 | 4.0 | 12.0 | 0.00 | 0.00 | 0.00 | 56 | 1004.1 |
| 20260505184524 | 73 | 229 | 6.0 | 9.0 | 0.00 | 0.00 | 0.00 | 58 | 1004.0 |
| 20260505184041 | 72 | 244 | 5.0 | 11.0 | 0.00 | 0.00 | 0.00 | 58 | 1004.1 |
| 20260505183536 | 72 | 253 | 5.0 | 11.0 | 0.00 | 0.00 | 0.00 | 57 | 1004.1 |
| 20260505183047 | 72 | 285 | 3.0 | 10.0 | 0.00 | 0.00 | 0.00 | 58 | 1004.2 |
| 20260505182544 | 72 | 234 | 3.0 | 11.0 | 0.00 | 0.00 | 0.00 | 59 | 1004.1 |
| 20260505181524 | 72 | 274 | 6.0 | 13.0 | 0.00 | 0.00 | 0.00 | 57 | 1004.4 |
| 20260505181035 | 73 | 190 | 6.0 | 13.0 | 0.00 | 0.00 | 0.00 | 56 | 1004.3 |
| 20260505180531 | 74 | 256 | 4.0 | 10.0 | 0.00 | 0.00 | 0.00 | 59 | 1004.3 |
| 20260505180043 | 73 | 216 | 5.0 | 10.0 | 0.00 | 0.00 | 0.00 | 58 | 1004.2 |
| 20260505175552 | 73 | 250 | 3.0 | 14.0 | 0.00 | 0.00 | 0.00 | 59 | 1004.3 |
| 20260505174522 | 72 | 201 | 5.0 | 12.0 | 0.00 | 0.00 | 0.00 | 59 | 1003.9 |
| 20260505174048 | 72 | 209 | 5.0 | 12.0 | 0.00 | 0.00 | 0.00 | 62 | 1004.0 |
| 20260505173531 | 71 | 250 | 4.0 | 10.0 | 0.00 | 0.00 | 0.00 | 61 | 1003.9 |
| 20260505173120 | 71 | 275 | 4.0 | 12.0 | 0.00 | 0.00 | 0.00 | 61 | 1003.8 |
| 20260505172530 | 71 | 268 | 5.0 | 12.0 | 0.00 | 0.00 | 0.00 | 60 | 1003.8 |
| 20260505172040 | 70 | 259 | 4.0 | 13.0 | 0.00 | 0.00 | 0.00 | 62 | 1003.8 |
| 20260505171550 | 70 | 267 | 6.0 | 16.0 | 0.00 | 0.00 | 0.00 | 60 | 1004.0 |
| 20260505171034 | 70 | 258 | 7.0 | 16.0 | 0.00 | 0.00 | 0.00 | 61 | 1004.1 |
| 20260505170534 | 70 | 254 | 8.0 | 16.0 | 0.00 | 0.00 | 0.00 | 59 | 1004.0 |
| 20260505170030 | 70 | 251 | 8.0 | 15.0 | 0.00 | 0.00 | 0.00 | 58 | 1004.1 |
| 20260505165545 | 71 | 308 | 3.0 | 11.0 | 0.00 | 0.00 | 0.00 | 58 | 1004.0 |
| 20260505165032 | 71 | 188 | 4.0 | 13.0 | 0.00 | 0.00 | 0.00 | 56 | 1003.8 |
| 20260505164530 | 71 | 202 | 4.0 | 11.0 | 0.00 | 0.00 | 0.00 | 56 | 1003.8 |
| 20260505164045 | 71 | 247 | 3.0 | 11.0 | 0.00 | 0.00 | 0.00 | 56 | 1003.6 |
| 20260505163547 | 71 | 252 | 4.0 | 11.0 | 0.00 | 0.00 | 0.00 | 56 | 1003.7 |
| 20260505163032 | 71 | 242 | 4.0 | 11.0 | 0.00 | 0.00 | 0.00 | 56 | 1003.6 |
| 20260505162551 | 71 | 232 | 4.0 | 11.0 | 0.00 | 0.00 | 0.00 | 56 | 1003.5 |
| 20260505162108 | 72 | 238 | 5.0 | 11.0 | 0.00 | 0.00 | 0.00 | 56 | 1003.2 |
| 20260505161557 | 72 | 211 | 3.0 | 8.0 | 0.00 | 0.00 | 0.00 | 59 | 1003.3 |
| 20260505161051 | 72 | 242 | 2.0 | 9.0 | 0.00 | 0.00 | 0.00 | 58 | 1003.3 |
| 20260505160543 | 72 | 247 | 3.0 | 9.0 | 0.00 | 0.00 | 0.00 | 59 | 1003.3 |
| 20260505153036 | 72 | 172 | 4.0 | 10.0 | 0.00 | 0.00 | 0.00 | 58 | 1002.7 |
| 20260505152544 | 72 | 271 | 6.0 | 10.0 | 0.00 | 0.00 | 0.00 | 58 | 1002.9 |
| 20260505152030 | 72 | 211 | 4.0 | 12.0 | 0.00 | 0.00 | 0.00 | 58 | 1002.9 |
| 20260505151607 | 72 | 204 | 4.0 | 12.0 | 0.00 | 0.00 | 0.00 | 58 | 1003.0 |
| 20260505151105 | 72 | 240 | 5.0 | 11.0 | 0.00 | 0.00 | 0.00 | 57 | 1003.0 |
| 20260505150542 | 72 | 205 | 5.0 | 11.0 | 0.00 | 0.00 | 0.00 | 58 | 1003.1 |
| 20260505140540 | 71 | 200 | 7.0 | 16.0 | 0.00 | 0.00 | 0.00 | 58 | 1002.7 |
| 20260505124551 | 71 | 177 | 6.0 | 16.0 | 0.00 | 0.00 | 0.00 | 59 | 1002.4 |
| 20260505124049 | 70 | 188 | 6.0 | 13.0 | 0.00 | 0.00 | 0.00 | 59 | 1002.4 |
| 20260505123541 | 70 | 202 | 6.0 | 15.0 | 0.00 | 0.00 | 0.00 | 60 | 1002.4 |
| 20260505123031 | 70 | 201 | 8.0 | 15.0 | 0.00 | 0.00 | 0.00 | 59 | 1002.3 |
| 20260505122531 | 70 | 215 | 5.0 | 14.0 | 0.00 | 0.00 | 0.00 | 60 | 1002.3 |
| 20260505122048 | 69 | 209 | 8.0 | 16.0 | 0.00 | 0.00 | 0.00 | 60 | 1002.2 |
| 20260505121527 | 69 | 201 | 8.0 | 16.0 | 0.00 | 0.00 | 0.00 | 60 | 1002.3 |
| 20260505121042 | 69 | 209 | 7.0 | 15.0 | 0.00 | 0.00 | 0.00 | 61 | 1002.3 |
| 20260505120533 | 69 | 219 | 6.0 | 10.0 | 0.00 | 0.00 | 0.00 | 61 | 1002.4 |
| 20260505120036 | 69 | 195 | 4.0 | 14.0 | 0.00 | 0.00 | 0.00 | 61 | 1002.4 |
| 20260505115532 | 69 | 192 | 9.0 | 14.0 | 0.00 | 0.00 | 0.00 | 61 | 1002.4 |
| 20260505115044 | 69 | 202 | 6.0 | 14.0 | 0.00 | 0.00 | 0.00 | 61 | 1002.5 |
| 20260505114025 | 69 | 192 | 6.0 | 10.0 | 0.00 | 0.00 | 0.00 | 61 | 1002.3 |
| 20260505113542 | 69 | 190 | 6.0 | 12.0 | 0.00 | 0.00 | 0.00 | 61 | 1002.3 |
| 20260505113045 | 68 | 200 | 6.0 | 14.0 | 0.00 | 0.00 | 0.00 | 62 | 1002.3 |
| 20260505112523 | 68 | 194 | 8.0 | 14.0 | 0.00 | 0.00 | 0.00 | 62 | 1002.2 |
| 20260505112047 | 68 | 198 | 5.0 | 14.0 | 0.00 | 0.00 | 0.00 | 63 | 1002.1 |
| 20260505111544 | 68 | 194 | 6.0 | 13.0 | 0.00 | 0.00 | 0.00 | 63 | 1002.0 |
| 20260505111036 | 67 | 206 | 6.0 | 13.0 | 0.00 | 0.00 | 0.00 | 63 | 1002.1 |
| 20260505110554 | 67 | 196 | 6.0 | 12.0 | 0.00 | 0.00 | 0.00 | 63 | 1002.0 |
| 20260505102028 | 65 | 183 | 4.0 | 9.0 | 0.00 | 0.00 | 0.00 | 66 | 1001.6 |
| 20260505101535 | 65 | 210 | 5.0 | 8.0 | 0.00 | 0.00 | 0.00 | 66 | 1001.6 |
| 20260505101042 | 65 | 197 | 4.0 | 7.0 | 0.00 | 0.00 | 0.00 | 66 | 1001.5 |
| 20260505100542 | 65 | 197 | 4.0 | 7.0 | 0.00 | 0.00 | 0.00 | 66 | 1001.5 |
| 20260505100034 | 65 | 220 | 4.0 | 7.0 | 0.00 | 0.00 | 0.00 | 67 | 1001.5 |
| 20260505095535 | 65 | 199 | 3.0 | 8.0 | 0.00 | 0.00 | 0.00 | 67 | 1001.5 |
| 20260505095028 | 64 | 199 | 4.0 | 7.0 | 0.00 | 0.00 | 0.00 | 68 | 1001.5 |
| 20260505094545 | 64 | 178 | 3.0 | 7.0 | 0.00 | 0.00 | 0.00 | 70 | 1001.5 |
| 20260505094046 | 63 | 201 | 4.0 | 7.0 | 0.00 | 0.00 | 0.00 | 71 | 1001.5 |
| 20260505093523 | 62 | 193 | 4.0 | 7.0 | 0.00 | 0.00 | 0.00 | 74 | 1001.5 |
| 20260505093043 | 61 | 186 | 4.0 | 7.0 | 0.00 | 0.00 | 0.00 | 76 | 1001.6 |
| 20260505092525 | 60 | 171 | 3.0 | 5.0 | 0.00 | 0.00 | 0.00 | 78 | 1001.6 |
| 20260505092031 | 60 | 155 | 1.0 | 5.0 | 0.00 | 0.00 | 0.00 | 77 | 1001.6 |
| 20260505091521 | 60 | 144 | 2.0 | 5.0 | 0.00 | 0.00 | 0.00 | 77 | 1001.8 |
| 20260505091028 | 60 | 148 | 2.0 | 5.0 | 0.00 | 0.00 | 0.00 | 77 | 1001.9 |
| 20260505090523 | 61 | 157 | 3.0 | 6.0 | 0.00 | 0.00 | 0.00 | 76 | 1001.9 |
| 20260505090028 | 61 | 155 | 2.0 | 6.0 | 0.00 | 0.00 | 0.00 | 75 | 1002.1 |
| 20260505085541 | 61 | 138 | 2.0 | 5.0 | 0.00 | 0.00 | 0.00 | 74 | 1002.2 |
| 20260505085033 | 62 | 141 | 0.0 | 3.0 | 0.00 | 0.00 | 0.00 | 73 | 1002.2 |
| 20260505084547 | 62 | 141 | 0.0 | 1.0 | 0.00 | 0.00 | 0.00 | 72 | 1002.2 |
| 20260505084056 | 62 | 141 | 0.0 | 6.0 | 0.00 | 0.00 | 0.00 | 72 | 1002.2 |
| 20260505083531 | 63 | 141 | 3.0 | 6.0 | 0.00 | 0.00 | 0.00 | 71 | 1002.2 |
| 20260505083036 | 63 | 150 | 0.0 | 0.0 | 0.00 | 0.00 | 0.00 | 70 | 1002.2 |
| 20260505082524 | 64 | 184 | 0.0 | 0.0 | 0.00 | 0.00 | 0.00 | 70 | 1002.3 |
| 20260505082041 | 64 | 184 | 0.0 | 0.0 | 0.00 | 0.00 | 0.00 | 70 | 1002.3 |
| 20260505081553 | 64 | 184 | 0.0 | 3.0 | 0.00 | 0.00 | 0.00 | 70 | 1002.2 |
| 20260505081022 | 64 | 184 | 1.0 | 4.0 | 0.00 | 0.00 | 0.00 | 70 | 1002.3 |
| 20260505080549 | 64 | 184 | 2.0 | 5.0 | 0.00 | 0.00 | 0.00 | 69 | 1002.2 |